[[{"header":{"parameterUnit":"m.s-1","parameterCategory":1,"la1":30.2991,"la2":30.254,"lo1":-89.0895,"lo2":-89.0444,"dy":0.0017,"dx":0.0017,"nx":28,"ny":28,"refTime":"2024-06-22T03:00:00:Z","depth":0,"parameterNumber":2,"parameterNumberName":"U-component_of_WINDS"},"data":[0,0,0,0,0,0,0,0,0,0,0,0,0,0,0,0,0,0,0,0,0,0,0,0,0,0,0,0,0,0,0,0,0,0,0,0,0,0,0,0,0,0,0,0,0,0,0,0,0,0,0,0,0,0,0,0,0,0,0.3106,0.3106,0,0.3128,0.3128,0.3129,0.3161,0.3162,0.3162,0.3163,0.3185,0.3185,0.3185,0,0,0,0,0,0,0,0,0,0,0,0,0,0.3091,0.3091,0.3106,0.3106,0.3106,0.3128,0.3129,0.3129,0.3161,0.3162,0.3162,0.3163,0.3185,0.3185,0.3185,0,0,0,0,0,0,0,0,0,0,0,0,0,0.3104,0.3091,0.3106,0.3125,0.3127,0.3128,0.3129,0.3129,0.3161,0.3162,0.3163,0.3163,0.3185,0.3185,0.3185,0.3168,0,0,0.3185,0.3185,0,0,0,0,0,0,0,0,0.3103,0.3104,0.3122,0.3124,0.3126,0.3143,0.3131,0.3142,0.3161,0.3148,0.3163,0.3164,0.317,0.3171,0.3174,0.3169,0.317,0.3185,0.3185,0.3185,0.3185,0,0,0,0,0,0,0,0.3102,0.3104,0.3115,0.3122,0.3125,0.3133,0.3135,0.3134,0.3154,0.3149,0.3152,0.3154,0.3171,0.3173,0.3174,0.3171,0.3185,0.3185,0.3185,0.3185,0.3154,0.3153,0,0,0,0,0,0,0.3098,0.3103,0.3114,0.3115,0.3116,0.3132,0.3135,0.3137,0.3154,0.3158,0.3153,0.3155,0.3173,0.3174,0.3175,0.3157,0.3185,0.3185,0.3185,0.3155,0.3154,0.3153,0,0,0,0,0,0,0.3098,0.3099,0.3113,0.311,0.3112,0.3132,0.3133,0.3137,0.3139,0.3157,0.3161,0.3152,0.3174,0.3175,0.317,0.3158,0.3185,0.3185,0.3156,0.3155,0.3154,0.312,0,0,0,0,0,0,0.3097,0.3099,0.3093,0.3109,0.3112,0.3107,0.3132,0.3136,0.3139,0.3142,0.3157,0.316,0.3174,0.317,0.317,0.3159,0.3185,0.3157,0.3156,0.3154,0.3122,0.3117,0.3114,0,0,0,0,0,0.3097,0.3082,0.3092,0.3093,0.3105,0.3106,0.3108,0.3125,0.3138,0.3132,0.3144,0.3159,0.316,0.3169,0.317,0.3158,0.3158,0.3156,0.3154,0.3124,0.3118,0.3114,0,0,0,0,0,0,0.3063,0.3084,0.3096,0.3086,0.3094,0.3112,0.3105,0.3119,0.3123,0.3126,0.3147,0.315,0.3142,0.315,0.316,0.3143,0.3161,0.3159,0.3138,0.3133,0.3129,0.3126,0.3186,0,0,0,0,0,0.3054,0.3054,0.3073,0.3062,0.3066,0.3085,0.3086,0.3099,0.3108,0.3111,0.3123,0.3131,0.3133,0.3134,0.3137,0.3124,0.3127,0.3117,0.3112,0.3109,0.3106,0.31,0.3095,0.3147,0.3147,0.3147,0,0,0.3036,0.3048,0.3046,0.3056,0.3064,0.3063,0.3087,0.3085,0.3084,0.3111,0.3106,0.3116,0.3126,0.3117,0.3114,0.3123,0.3093,0.3106,0.3103,0.3103,0.3097,0.3093,0.3088,0.3145,0.3146,0.3146,0,0,0.3002,0.3012,0.3004,0.3012,0.3023,0.3036,0.3034,0.305,0.3057,0.3053,0.3073,0.3073,0.3076,0.3083,0.3087,0.3057,0.3071,0.3058,0.3035,0.3028,0.3024,0.3021,0.3009,0.3005,0.3056,0.3055,0.3055,0,0.2978,0.2978,0.2998,0.2995,0.2998,0.3023,0.3015,0.3022,0.3034,0.3035,0.3046,0.3051,0.306,0.3053,0.3045,0.3048,0.3046,0.3055,0.3023,0.302,0.3017,0.3006,0.3002,0.3054,0.3054,0.3054,0.3054,0,0.2947,0.2946,0.2939,0.295,0.2953,0.2947,0.2967,0.2967,0.298,0.2992,0.2988,0.3,0.3006,0.3005,0.3018,0.3,0.3005,0.302,0.3038,0.301,0.3,0.2996,0.3051,0.3052,0.3052,0.3053,0,0,0.289,0.2914,0.2911,0.2916,0.2932,0.2932,0.2928,0.2934,0.2933,0.2942,0.2938,0.2941,0.2954,0.2959,0.2973,0.2967,0.2942,0.2982,0.2983,0.2973,0.2923,0.2911,0.2906,0.2953,0.2952,0.2952,0.2921,0,0.2859,0.2852,0.2871,0.286,0.286,0.2885,0.2881,0.289,0.2902,0.2903,0.2916,0.2917,0.2935,0.2938,0.2934,0.2946,0.2932,0.2949,0.2949,0.2949,0.2944,0.2901,0.2888,0.2858,0.2918,0.2917,0.2917,0,0.282,0.2826,0.2815,0.2832,0.2833,0.2829,0.2837,0.2838,0.2849,0.2858,0.2863,0.288,0.2877,0.2896,0.2892,0.2903,0.2905,0.2911,0.291,0.2909,0.293,0.2897,0.2849,0.2844,0.2911,0.2912,0.2912,0,0.2778,0.2785,0.2779,0.2783,0.2803,0.2799,0.2808,0.282,0.2822,0.2829,0.2831,0.2837,0.284,0.2845,0.2862,0.2875,0.2856,0.2877,0.2863,0.2862,0.2856,0.2856,0.2806,0.286,0.286,0.286,0.286,0,0.274,0.2732,0.276,0.2756,0.2748,0.2771,0.2762,0.2773,0.2784,0.2782,0.2805,0.2803,0.2828,0.2829,0.2843,0.2837,0.2839,0.2845,0.2849,0.2842,0.2841,0.2842,0.2844,0.2859,0.2859,0.2859,0.2859,0,0.2691,0.271,0.2705,0.2725,0.2729,0.2722,0.2739,0.2737,0.275,0.2748,0.2749,0.277,0.2772,0.2791,0.2798,0.2808,0.2796,0.2805,0.2792,0.2794,0.2778,0.2779,0.2726,0.272,0.2779,0.2778,0.2778,0,0.2664,0.2658,0.2678,0.2679,0.2686,0.2687,0.269,0.2713,0.2715,0.2728,0.2724,0.2728,0.2733,0.2736,0.2751,0.2757,0.2765,0.2746,0.2765,0.2759,0.2763,0.2762,0.2761,0.2741,0.274,0.274,0.2739,0,0.2614,0.2624,0.2628,0.2635,0.2638,0.2644,0.2652,0.2652,0.2677,0.2678,0.2681,0.2685,0.2692,0.2696,0.2705,0.2713,0.273,0.2733,0.273,0.2722,0.2715,0.2717,0.2779,0.2734,0.2734,0.2735,0.2735,0.2735,0.2574,0.2571,0.2584,0.2587,0.2596,0.2603,0.2602,0.2615,0.2618,0.2626,0.264,0.2641,0.2653,0.2666,0.2673,0.2675,0.2684,0.268,0.2679,0.2677,0.2673,0.2716,0.2676,0.2677,0.2677,0.2677,0.2677,0,0.2524,0.2535,0.2538,0.2548,0.2551,0.2568,0.2578,0.2579,0.258,0.259,0.2595,0.2599,0.2603,0.262,0.2626,0.2624,0.2631,0.2624,0.2624,0.2625,0.2664,0.2666,0.2618,0.2618,0.2618,0.2618,0.2618,0.2618,0.2499,0.2493,0.2505,0.2504,0.2514,0.2516,0.252,0.2527,0.2535,0.2538,0.2542,0.2554,0.2566,0.2574,0.2579,0.2584,0.2584,0.2574,0.2581,0.2617,0.2623,0.2628,0.2629,0.2575,0.2574,0.2542,0.2542,0.2542]},{"header":{"parameterUnit":"m.s-1","parameterCategory":1,"la1":30.2991,"la2":30.254,"lo1":-89.0895,"lo2":-89.0444,"dy":0.0017,"dx":0.0017,"nx":28,"ny":28,"refTime":"2024-06-22T03:00:00:Z","depth":0,"parameterNumber":3,"parameterNumberName":"V-component_of_WINDS"},"data":[0,0,0,0,0,0,0,0,0,0,0,0,0,0,0,0,0,0,0,0,0,0,0,0,0,0,0,0,0,0,0,0,0,0,0,0,0,0,0,0,0,0,0,0,0,0,0,0,0,0,0,0,0,0,0,0,0,0,-2.2442,-2.2443,0,-2.2517,-2.2517,-2.2518,-2.2534,-2.2534,-2.2533,-2.2533,-2.2606,-2.2609,-2.2611,0,0,0,0,0,0,0,0,0,0,0,0,0,-2.2311,-2.2313,-2.2442,-2.2443,-2.2444,-2.2517,-2.2518,-2.2519,-2.2535,-2.2534,-2.2533,-2.2533,-2.2605,-2.2608,-2.2611,0,0,0,0,0,0,0,0,0,0,0,0,0,-2.2375,-2.2314,-2.2442,-2.2461,-2.2463,-2.2516,-2.2518,-2.2519,-2.2535,-2.2534,-2.2533,-2.2532,-2.2604,-2.2608,-2.2612,-2.265,0,0,-2.2623,-2.2624,0,0,0,0,0,0,0,0,-2.2371,-2.2379,-2.2457,-2.246,-2.2462,-2.2516,-2.2498,-2.2563,-2.2535,-2.2507,-2.2533,-2.2532,-2.2576,-2.2582,-2.2598,-2.2654,-2.2657,-2.2623,-2.2625,-2.2627,-2.2628,0,0,0,0,0,0,0,-2.2367,-2.2376,-2.2472,-2.2458,-2.2461,-2.2465,-2.2473,-2.251,-2.2545,-2.251,-2.2511,-2.252,-2.2578,-2.2594,-2.26,-2.2658,-2.2623,-2.2626,-2.2629,-2.263,-2.2748,-2.2749,0,0,0,0,0,0,-2.2359,-2.2373,-2.2469,-2.2474,-2.2414,-2.2468,-2.2477,-2.2499,-2.2545,-2.2551,-2.252,-2.252,-2.2589,-2.2596,-2.2602,-2.265,-2.2627,-2.263,-2.2633,-2.2747,-2.2748,-2.2749,0,0,0,0,0,0,-2.2356,-2.2368,-2.2466,-2.2424,-2.2436,-2.2471,-2.2496,-2.2501,-2.2518,-2.2553,-2.2559,-2.2531,-2.2588,-2.2597,-2.2638,-2.2653,-2.2632,-2.2635,-2.2746,-2.2748,-2.2749,-2.2746,0,0,0,0,0,0,-2.2353,-2.2367,-2.2382,-2.2424,-2.2439,-2.2502,-2.2497,-2.2503,-2.2524,-2.2525,-2.2565,-2.2571,-2.2588,-2.2633,-2.2642,-2.2657,-2.2638,-2.2745,-2.2747,-2.2748,-2.2745,-2.2747,-2.2749,0,0,0,0,0,-2.2348,-2.2378,-2.2383,-2.2395,-2.2459,-2.2502,-2.2511,-2.2531,-2.2526,-2.2541,-2.2564,-2.257,-2.265,-2.2637,-2.2647,-2.2664,-2.2744,-2.2746,-2.2748,-2.2744,-2.2746,-2.2749,0,0,0,0,0,0,-2.2336,-2.2384,-2.239,-2.2435,-2.2465,-2.2505,-2.2525,-2.2533,-2.2565,-2.2564,-2.2587,-2.2596,-2.2635,-2.2654,-2.2638,-2.2703,-2.2697,-2.2701,-2.269,-2.2692,-2.2694,-2.2688,-2.2641,0,0,0,0,0,-2.2339,-2.2372,-2.2411,-2.2447,-2.2461,-2.2491,-2.251,-2.2524,-2.2555,-2.2567,-2.2593,-2.2622,-2.2654,-2.2674,-2.2706,-2.2748,-2.2756,-2.2765,-2.2766,-2.2768,-2.2771,-2.2794,-2.2797,-2.2756,-2.2756,-2.2756,0,0,-2.2345,-2.2375,-2.2394,-2.2445,-2.247,-2.2501,-2.2501,-2.2535,-2.2558,-2.2572,-2.2612,-2.2632,-2.2666,-2.2708,-2.2727,-2.2725,-2.2784,-2.2771,-2.2772,-2.2774,-2.2796,-2.28,-2.2803,-2.2758,-2.2757,-2.2757,0,0,-2.2372,-2.2399,-2.2431,-2.2456,-2.2493,-2.2513,-2.252,-2.256,-2.2574,-2.2615,-2.2626,-2.2653,-2.2708,-2.2732,-2.2751,-2.2786,-2.2792,-2.2796,-2.2806,-2.2828,-2.2831,-2.2834,-2.2845,-2.2849,-2.2799,-2.2799,-2.2799,0,-2.2374,-2.2423,-2.2446,-2.2479,-2.2501,-2.2516,-2.2548,-2.2571,-2.2616,-2.263,-2.2627,-2.2696,-2.272,-2.2766,-2.2775,-2.2791,-2.2799,-2.2791,-2.2829,-2.2832,-2.2835,-2.2846,-2.2851,-2.2799,-2.2799,-2.2799,-2.2799,0,-2.2424,-2.2458,-2.2479,-2.2523,-2.2547,-2.258,-2.2606,-2.2628,-2.2639,-2.2658,-2.2699,-2.2729,-2.2766,-2.2778,-2.2789,-2.2826,-2.2824,-2.2824,-2.2818,-2.2839,-2.285,-2.2854,-2.2799,-2.2799,-2.2799,-2.2799,0,0,-2.2445,-2.2502,-2.2509,-2.2529,-2.2571,-2.2597,-2.263,-2.2667,-2.2685,-2.2716,-2.2743,-2.2789,-2.279,-2.2811,-2.2825,-2.2844,-2.2869,-2.2843,-2.2844,-2.2846,-2.2911,-2.2909,-2.2914,-2.2874,-2.2875,-2.2876,-2.2907,0,-2.2476,-2.2536,-2.2557,-2.2606,-2.2636,-2.2651,-2.268,-2.2708,-2.2727,-2.2755,-2.2776,-2.2808,-2.2807,-2.282,-2.284,-2.2862,-2.2882,-2.286,-2.2898,-2.2899,-2.2888,-2.292,-2.2918,-2.2946,-2.2912,-2.2913,-2.2913,0,-2.252,-2.2552,-2.2604,-2.2642,-2.2656,-2.2681,-2.2717,-2.2744,-2.2776,-2.2789,-2.2813,-2.2825,-2.2859,-2.2851,-2.2897,-2.2881,-2.2898,-2.2911,-2.2913,-2.2916,-2.2907,-2.2922,-2.2956,-2.296,-2.292,-2.292,-2.2919,0,-2.2529,-2.2585,-2.2623,-2.264,-2.2686,-2.2703,-2.2723,-2.2754,-2.2775,-2.2806,-2.2819,-2.2854,-2.2872,-2.2897,-2.2918,-2.2911,-2.2962,-2.2956,-2.2972,-2.2971,-2.2981,-2.298,-2.3016,-2.2994,-2.2994,-2.2993,-2.2993,0,-2.256,-2.2591,-2.2628,-2.2651,-2.2686,-2.2709,-2.2743,-2.2763,-2.2791,-2.2818,-2.2833,-2.2858,-2.2884,-2.2912,-2.2928,-2.2963,-2.2972,-2.2982,-2.2985,-2.298,-2.2978,-2.299,-2.2988,-2.2995,-2.2994,-2.2994,-2.2994,0,-2.2576,-2.2601,-2.2644,-2.2684,-2.2695,-2.2718,-2.2752,-2.2775,-2.2795,-2.2828,-2.2837,-2.2868,-2.2902,-2.2925,-2.2968,-2.2979,-2.3016,-2.302,-2.3005,-2.3007,-2.3021,-2.3019,-2.3066,-2.3073,-2.3046,-2.3046,-2.3047,0,-2.2594,-2.2618,-2.2661,-2.268,-2.27,-2.2731,-2.2753,-2.2777,-2.2798,-2.2837,-2.2854,-2.2889,-2.2918,-2.2971,-2.2996,-2.3029,-2.3033,-2.3047,-2.3038,-2.3031,-2.3032,-2.303,-2.3032,-2.3048,-2.3048,-2.3048,-2.3048,0,-2.2622,-2.2634,-2.2665,-2.27,-2.2726,-2.2754,-2.2783,-2.2798,-2.2827,-2.285,-2.2885,-2.2907,-2.2952,-2.2985,-2.302,-2.3039,-2.3048,-2.3051,-2.3056,-2.305,-2.304,-2.3045,-2.3008,-2.305,-2.305,-2.305,-2.3049,-2.3049,-2.2639,-2.2661,-2.2694,-2.2728,-2.2752,-2.2779,-2.2802,-2.2825,-2.2855,-2.2893,-2.2905,-2.2941,-2.2972,-2.302,-2.304,-2.3067,-2.3066,-2.3074,-2.3076,-2.3077,-2.3076,-2.3037,-2.3074,-2.3074,-2.3074,-2.3074,-2.3074,0,-2.2667,-2.269,-2.2721,-2.2761,-2.2787,-2.2795,-2.2827,-2.2848,-2.2879,-2.2908,-2.2936,-2.2976,-2.3008,-2.3037,-2.307,-2.3087,-2.3092,-2.3095,-2.3093,-2.3097,-2.3076,-2.3067,-2.309,-2.309,-2.309,-2.309,-2.309,-2.309,-2.2685,-2.2723,-2.2738,-2.2787,-2.2809,-2.2845,-2.2862,-2.2886,-2.2909,-2.2953,-2.2981,-2.2999,-2.3027,-2.3063,-2.3093,-2.3101,-2.3112,-2.3114,-2.3122,-2.3101,-2.3099,-2.3097,-2.3089,-2.3116,-2.3116,-2.3141,-2.3141,-2.3141]}]]